Livingston, MT

6:47 PM MST on January 24, 2017 (GMT -0700)
Mission

Weather History for KLVM - November, 2012

Change the Weather History Date:

Friday, November 2, 2012

  Actual Average Record
Temperature  
Mean Temperature 44 °F 39 °F  
Max Temperature 55 °F 51 °F 69 °F (1965)
Min Temperature 32 °F 28 °F -12 °F (1991)
Degree Days  
Heating Degree Days 22 26  
Month to date heating degree days 51  
Since 1 July heating degree days 1079  
Cooling Degree Days 0 0  
Month to date cooling degree days 0  
Year to date cooling degree days 230  
Moisture  
Dew Point 30 °F    
Average Humidity 56    
Maximum Humidity 79    
Minimum Humidity 37    
Precipitation  
Precipitation 0.00 in 0.02 in 0.39 in (2005)
Month to date precipitation 0.04  
Year to date precipitation 13.74  
Sea Level Pressure  
Sea Level Pressure 30.05 in    
Wind  
Wind Speed 16 mph (West)    
Max Wind Speed 22 mph    
Max Gust Speed 24 mph    
Visibility 10 miles    
Events      
T = Trace of Precipitation, MM = Missing Value Source: NWS Daily Summary

Daily Weather History Graph

Daily Weather History Graph

Search for Another Location

Airport or City:

Trip Planner

Search our weather history database for the weather conditions in past years. The results will help you decide how hot, cold, wet, or windy it might be!

Date:

Astronomy

Nov. 02, 2012 Rise Set
Actual Time 8:03 AM MDT 6:06 PM MDT
Civil Twilight 7:32 AM MDT 6:37 PM MDT
Nautical Twilight 6:57 AM MDT 7:12 PM MDT
Astronomical Twilight 6:22 AM MDT 7:47 PM MDT
Moon 8:50 PM MDT (11/2) 11:33 AM MDT (11/2)
Length of Visible Light 11h 04m
Length of Day
10h 02m
Waning Gibbous, 87% of the Moon is Illuminated
Nov 2
Waning Gibbous
Nov 6
Last Quarter
Nov 13
New
Nov 20
First Quarter
Nov 28
Full

Hourly Weather History & Observations

Time (MDT) Temp. Windchill Dew Point Humidity Pressure Visibility Wind Dir Wind Speed Gust Speed Precip Events Conditions
12:53 AM 44.1 °F 36.2 °F 35.1 °F 71% 29.90 in 10.0 mi West 18.4 mph - N/A   Mostly Cloudy
1:53 AM 45.0 °F 36.9 °F 33.1 °F 63% 29.91 in 10.0 mi West 20.7 mph - N/A   Scattered Clouds
2:53 AM 45.0 °F 37.1 °F 32.0 °F 60% 29.94 in 10.0 mi West 19.6 mph 24.2 mph N/A   Mostly Cloudy
3:53 AM 44.1 °F 37.1 °F 32.0 °F 63% 29.95 in 10.0 mi WSW 15.0 mph - N/A   Overcast
4:53 AM 43.0 °F 35.4 °F 30.9 °F 62% 29.96 in 10.0 mi WSW 16.1 mph - N/A   Overcast
5:53 AM 43.0 °F 36.8 °F 32.0 °F 65% 30.01 in 10.0 mi WNW 11.5 mph - N/A   Overcast
6:09 AM 44.6 °F 38.1 °F 30.2 °F 57% 30.03 in 10.0 mi WSW 13.8 mph - N/A   Overcast
6:53 AM 43.0 °F 35.4 °F 30.9 °F 62% 30.00 in 10.0 mi WSW 16.1 mph - N/A   Overcast
7:53 AM 43.0 °F 34.5 °F 28.9 °F 58% 30.03 in 10.0 mi West 19.6 mph - N/A   Clear
8:53 AM 46.0 °F 39.6 °F 30.0 °F 54% 30.06 in 10.0 mi WSW 15.0 mph 23.0 mph N/A   Overcast
9:53 AM 48.0 °F - 30.0 °F 50% 30.08 in 10.0 mi WSW 19.6 mph - N/A   Mostly Cloudy
10:53 AM 48.9 °F - 30.0 °F 48% 30.09 in 10.0 mi WSW 17.3 mph - N/A   Overcast
11:53 AM 51.1 °F - 30.0 °F 44% 30.09 in 10.0 mi WSW 21.9 mph - N/A   Overcast
12:53 PM 50.0 °F - 30.0 °F 46% 30.09 in 10.0 mi West 17.3 mph - N/A   Mostly Cloudy
1:53 PM 52.0 °F - 28.9 °F 41% 30.07 in 10.0 mi WSW 16.1 mph - N/A   Mostly Cloudy
2:53 PM 55.0 °F - 28.9 °F 37% 30.06 in 10.0 mi WSW 17.3 mph - N/A   Mostly Cloudy
3:53 PM 52.0 °F - 27.0 °F 38% 30.06 in 10.0 mi West 15.0 mph - N/A   Mostly Cloudy
4:53 PM 54.0 °F - 30.0 °F 40% 30.06 in 10.0 mi WSW 12.7 mph - N/A   Overcast
5:53 PM 50.0 °F - 30.9 °F 48% 30.08 in 10.0 mi West 6.9 mph - N/A   Overcast
6:53 PM 46.9 °F - 28.9 °F 50% 30.11 in 10.0 mi WNW 8.1 mph - N/A   Overcast
7:53 PM 42.1 °F 37.7 °F 28.0 °F 58% 30.14 in 10.0 mi WNW 6.9 mph - N/A   Partly Cloudy
8:53 PM 36.0 °F 32.1 °F 27.0 °F 70% 30.15 in 10.0 mi WSW 4.6 mph - N/A   Clear
9:53 PM 37.9 °F 35.5 °F 27.0 °F 65% 30.15 in 10.0 mi West 3.5 mph - N/A   Clear
10:53 PM 32.0 °F 27.5 °F 26.1 °F 79% 30.17 in 10.0 mi West 4.6 mph - N/A   Clear
11:53 PM 33.1 °F 27.7 °F 27.0 °F 78% 30.15 in 10.0 mi NW 5.8 mph - N/A   Clear